Location: Kellogg
(38.0159°N, 90.0546°W)
Time: 16:00:26
(UTC+00:00)

Altair - Pass Details

Date: 14 September 2024
Orbit: 1501 x 1682 km, 47.2° (Epoch: 15 October)

Event Time Altitude Azimuth Distance (km) Brightness Sun altitude
Exits shadow 10:04:58 24° 269° (W) 2,932 8.4 -19.4°
Maximum altitude 10:11:30 61° 341° (NNW) 1,868 7.9 -18.2°
Drops below altitude 10° 10:21:34 10° 61° (ENE) 3,942 10.9 -16.3°
Sets 10:24:49 0° 65° (ENE) 4,923 11.9 -15.7°
